Simultaneous Nadir Overpasses (SNOs) Predictions

Prediction of SNOs between NOAA-19 and NPP Satellite Orbit:

Table of predicted SNOs for the next 14.0 days since TLE Epoch: 9/6/2012
Index Date (NOAA-19) Time (NOAA-19) NOAA-19 Lat,Lon Date (NPP) Time (NPP) NPP Lat,Lon Distance(km) Time Diff (sec)
1 09/14/2012 22:43:57 -80.75, -30.01 09/14/2012 22:45:04 -80.75, -29.98 0.48 67
2 09/14/2012 23:35:02 80.73, 137.61 09/14/2012 23:35:48 80.73, 137.71 1.95 46
3 09/15/2012 00:26:00 -80.71, -54.81 09/15/2012 00:26:32 -80.71, -54.72 1.68 32
4 09/15/2012 01:17:04 80.67, 113.15 09/15/2012 01:17:15 80.67, 113.32 3.19 11
5 09/15/2012 02:08:03 -80.67, -79.62 09/15/2012 02:08:00 -80.67, -79.46 2.90 3
6 09/15/2012 02:59:04 80.57, 89.36 09/15/2012 02:58:41 80.58, 89.24 2.16 23
7 09/15/2012 03:50:01 -80.53,-102.75 09/15/2012 03:49:24 -80.54,-102.87 2.33 37
8 09/15/2012 04:41:06 80.51, 64.86 09/15/2012 04:40:08 80.51, 64.82 0.91 58




NCC Satellite Simultaneous Nadir Overpasses (SNOs) Prediction Service
